Time,TemperatureF,DewpointF,PressureIn,WindDirection,WindDirectionDegrees,WindSpeedMPH,WindSpeedGustMPH,Humidity,HourlyPrecipIn,Conditions,Clouds,dailyrainin,SoftwareType,DateUTC
2013-01-29 08:05:00,20.1,14.4,29.64,NE,45,1.0,2.0,78,0.00,,---,0.00,VWS V14.01,2013-01-29 15:05:00,
2013-01-29 08:18:00,20.1,14.4,29.64,NE,45,1.0,2.0,78,0.00,,---,0.00,VWS V14.01,2013-01-29 15:18:00,
2013-01-29 08:23:00,21.1,14.7,29.64,NE,53,0.0,5.0,76,0.00,,---,0.00,VWS V14.01,2013-01-29 15:23:00,
2013-01-29 08:28:00,21.3,14.6,29.64,NE,53,1.0,6.0,75,0.00,,---,0.00,VWS V14.01,2013-01-29 15:28:00,
2013-01-29 08:33:00,21.4,14.7,29.64,NE,53,0.0,2.0,75,0.00,,---,0.00,VWS V14.01,2013-01-29 15:33:00,
2013-01-29 08:38:00,21.5,14.8,29.62,NE,53,1.0,4.0,75,0.00,,---,0.00,VWS V14.01,2013-01-29 15:38:00,
2013-01-29 08:43:00,21.6,14.0,29.62,NE,53,0.0,6.0,72,0.00,,---,0.00,VWS V14.01,2013-01-29 15:43:00,
2013-01-29 08:48:00,21.7,12.8,29.62,NE,46,1.0,8.0,68,0.00,,---,0.00,VWS V14.01,2013-01-29 15:48:00,
2013-01-29 08:53:00,21.5,10.9,29.63,ENE,58,8.0,10.0,63,0.00,,---,0.00,VWS V14.01,2013-01-29 15:53:00,
2013-01-29 08:58:00,21.6,11.0,29.63,NE,52,4.0,5.0,63,0.00,,---,0.00,VWS V14.01,2013-01-29 15:58:00,
2013-01-29 09:03:00,21.9,10.2,29.63,NNW,339,3.0,8.0,60,0.00,,---,0.00,VWS V14.01,2013-01-29 16:03:00,
2013-01-29 09:08:00,21.9,9.8,29.65,NNW,334,12.0,12.0,59,0.00,,---,0.00,VWS V14.01,2013-01-29 16:08:00,
2013-01-29 09:13:00,21.6,8.7,29.65,NNW,336,0.0,11.0,57,0.00,,---,0.00,VWS V14.01,2013-01-29 16:13:00,
2013-01-29 09:18:00,21.1,8.3,29.67,NW,322,20.0,20.0,57,0.00,,---,0.00,VWS V14.01,2013-01-29 16:18:00,
2013-01-29 09:23:00,20.6,7.8,29.67,NNW,338,9.0,15.0,57,0.00,,---,0.00,VWS V14.01,2013-01-29 16:23:00,
2013-01-29 09:28:00,20.5,7.7,29.67,NNW,331,5.0,13.0,57,0.00,,---,0.00,VWS V14.01,2013-01-29 16:28:00,
2013-01-29 09:33:00,20.7,8.3,29.67,NNW,336,6.0,13.0,58,0.00,,---,0.00,VWS V14.01,2013-01-29 16:33:00,
2013-01-29 09:38:00,20.6,7.8,29.67,NNW,338,12.0,20.0,57,0.00,,---,0.00,VWS V14.01,2013-01-29 16:38:00,
2013-01-29 09:43:00,20.4,7.2,29.66,NNW,337,16.0,18.0,56,0.00,,---,0.00,VWS V14.01,2013-01-29 16:43:00,
2013-01-29 09:48:00,20.2,6.2,29.66,NW,326,19.0,21.0,54,0.00,,---,0.00,VWS V14.01,2013-01-29 16:48:00,
2013-01-29 09:53:00,20.3,6.3,29.66,NNW,345,12.0,21.0,54,0.00,,---,0.00,VWS V14.01,2013-01-29 16:53:00,
2013-01-29 09:58:00,20.4,6.0,29.67,NNW,342,13.0,20.0,53,0.00,,---,0.00,VWS V14.01,2013-01-29 16:58:00,
2013-01-29 10:03:00,20.3,5.9,29.67,NNW,333,15.0,20.0,53,0.00,,---,0.00,VWS V14.01,2013-01-29 17:03:00,
2013-01-29 10:08:00,20.2,5.4,29.69,NNW,340,15.0,19.0,52,0.00,,---,0.00,VWS V14.01,2013-01-29 17:08:00,
2013-01-29 10:13:00,20.2,5.4,29.69,NNW,333,12.0,21.0,52,0.00,,---,0.00,VWS V14.01,2013-01-29 17:13:00,
2013-01-29 10:18:00,20.1,6.1,29.68,NW,325,19.0,19.0,54,0.00,,---,0.00,VWS V14.01,2013-01-29 17:18:00,
2013-01-29 10:23:00,20.1,4.9,29.68,NNW,340,12.0,18.0,51,0.00,,---,0.00,VWS V14.01,2013-01-29 17:23:00,
2013-01-29 10:28:00,20.2,5.4,29.69,NNW,345,12.0,21.0,52,0.00,,---,0.00,VWS V14.01,2013-01-29 17:28:00,
2013-01-29 10:33:00,20.2,5.0,29.69,NNW,346,8.0,19.0,51,0.00,,---,0.00,VWS V14.01,2013-01-29 17:33:00,
2013-01-29 10:38:00,20.3,10.4,29.69,NE,51,9.0,16.0,65,0.00,,---,0.00,VWS V14.01,2013-01-29 17:38:00,
2013-01-29 10:43:00,20.3,11.8,29.69,ENE,61,10.0,14.0,69,0.00,,---,0.00,VWS V14.01,2013-01-29 17:43:00,
2013-01-29 10:48:00,20.2,11.7,29.68,ENE,64,6.0,13.0,69,0.00,,---,0.00,VWS V14.01,2013-01-29 17:48:00,
2013-01-29 10:53:00,20.1,11.6,29.69,NE,47,6.0,10.0,69,0.00,,---,0.00,VWS V14.01,2013-01-29 17:53:00,
2013-01-29 10:58:00,20.1,10.9,29.68,ENE,63,5.0,12.0,67,0.00,,---,0.00,VWS V14.01,2013-01-29 17:58:00,
2013-01-29 11:03:00,20.4,11.2,29.68,NE,43,2.0,10.0,67,0.00,,---,0.00,VWS V14.01,2013-01-29 18:03:00,
2013-01-29 11:08:00,20.6,11.1,29.68,NE,47,8.0,10.0,66,0.00,,---,0.00,VWS V14.01,2013-01-29 18:08:00,
2013-01-29 11:13:00,20.6,11.7,29.68,ENE,61,5.0,8.0,68,0.00,,---,0.00,VWS V14.01,2013-01-29 18:13:00,
2013-01-29 11:18:00,20.4,12.2,29.68,East,83,2.0,7.0,70,0.00,,---,0.00,VWS V14.01,2013-01-29 18:18:00,
2013-01-29 11:23:00,20.5,12.3,29.68,ENE,64,3.0,7.0,70,0.00,,---,0.00,VWS V14.01,2013-01-29 18:23:00,
2013-01-29 11:28:00,21.1,12.5,29.67,East,80,5.0,5.0,69,0.00,,---,0.00,VWS V14.01,2013-01-29 18:28:00,
2013-01-29 11:33:00,21.7,11.8,29.65,East,90,4.0,7.0,65,0.00,,---,0.00,VWS V14.01,2013-01-29 18:33:00,
2013-01-29 11:38:00,22.2,11.5,29.65,ENE,77,4.0,7.0,63,0.00,,---,0.00,VWS V14.01,2013-01-29 18:38:00,
2013-01-29 11:43:00,22.2,11.2,29.65,East,89,3.0,6.0,62,0.00,,---,0.00,VWS V14.01,2013-01-29 18:43:00,
2013-01-29 11:49:00,22.3,11.6,29.65,ENE,74,1.0,5.0,63,0.00,,---,0.00,VWS V14.01,2013-01-29 18:49:00,
2013-01-29 11:54:00,22.1,11.1,29.65,ENE,61,4.0,7.0,62,0.00,,---,0.00,VWS V14.01,2013-01-29 18:54:00,
2013-01-29 11:59:00,22.1,11.1,29.64,ENE,71,3.0,8.0,62,0.00,,---,0.00,VWS V14.01,2013-01-29 18:59:00,
2013-01-29 12:04:00,22.0,11.0,29.64,ENE,65,2.0,6.0,62,0.00,,---,0.00,VWS V14.01,2013-01-29 19:04:00,
2013-01-29 12:09:00,22.1,11.4,29.66,ENE,77,4.0,5.0,63,0.00,,---,0.00,VWS V14.01,2013-01-29 19:09:00,
2013-01-29 12:14:00,22.4,11.4,29.66,ENE,77,1.0,5.0,62,0.00,,---,0.00,VWS V14.01,2013-01-29 19:14:00,
2013-01-29 12:19:00,22.6,11.2,29.65,East,90,5.0,5.0,61,0.00,,---,0.00,VWS V14.01,2013-01-29 19:19:00,
2013-01-29 12:24:00,22.8,11.0,29.65,East,80,2.0,5.0,60,0.00,,---,0.00,VWS V14.01,2013-01-29 19:24:00,
2013-01-29 12:29:00,22.9,10.0,29.65,ENE,75,3.0,6.0,57,0.00,,---,0.00,VWS V14.01,2013-01-29 19:29:00,
2013-01-29 12:34:00,22.9,10.0,29.65,ENE,75,0.0,4.0,57,0.00,,---,0.00,VWS V14.01,2013-01-29 19:34:00,
2013-01-29 12:39:00,23.1,10.5,29.65,East,82,3.0,6.0,58,0.00,,---,0.00,VWS V14.01,2013-01-29 19:39:00,
2013-01-29 12:44:00,23.0,8.4,29.64,ENE,64,0.0,2.0,53,0.00,,---,0.00,VWS V14.01,2013-01-29 19:44:00,
2013-01-29 12:49:00,23.1,7.2,29.64,ENE,64,0.0,2.0,50,0.00,,---,0.00,VWS V14.01,2013-01-29 19:49:00,
2013-01-29 12:54:00,23.4,7.1,29.64,ENE,63,0.0,5.0,49,0.00,,---,0.00,VWS V14.01,2013-01-29 19:54:00,
2013-01-29 12:59:00,23.5,7.2,29.62,NE,53,0.0,9.0,49,0.00,,---,0.00,VWS V14.01,2013-01-29 19:59:00,
2013-01-29 13:01:00,23.4,7.1,29.64,NE,54,0.0,9.0,49,0.00,,---,0.00,VWS V14.01,2013-01-29 20:01:00,
2013-01-29 13:06:00,23.8,7.9,29.62,NE,53,0.0,4.0,50,0.00,,---,0.00,VWS V14.01,2013-01-29 20:06:00,
2013-01-29 13:11:00,24.4,8.9,29.64,NE,55,0.0,0.0,51,0.00,,---,0.00,VWS V14.01,2013-01-29 20:11:00,
2013-01-29 13:16:00,24.8,7.9,29.62,NE,55,6.0,6.0,48,0.00,,---,0.00,VWS V14.01,2013-01-29 20:16:00,
2013-01-29 13:21:00,24.6,7.7,29.62,NE,53,4.0,7.0,48,0.00,,---,0.00,VWS V14.01,2013-01-29 20:21:00,
2013-01-29 13:26:00,24.4,6.6,29.64,NNW,337,7.0,12.0,46,0.00,,---,0.00,VWS V14.01,2013-01-29 20:26:00,
2013-01-29 13:31:00,24.4,2.5,29.62,NW,325,4.0,6.0,38,0.00,,---,0.00,VWS V14.01,2013-01-29 20:31:00,
2013-01-29 13:36:00,24.2,2.3,29.64,WNW,296,10.0,11.0,38,0.00,,---,0.00,VWS V14.01,2013-01-29 20:36:00,
2013-01-29 13:41:00,23.8,1.3,29.65,WNW,296,7.0,13.0,37,0.00,,---,0.00,VWS V14.01,2013-01-29 20:41:00,
2013-01-29 13:46:00,23.6,1.7,29.65,NW,321,8.0,13.0,38,0.00,,---,0.00,VWS V14.01,2013-01-29 20:46:00,
2013-01-29 13:51:00,23.9,3.1,29.65,NNW,332,7.0,10.0,40,0.00,,---,0.00,VWS V14.01,2013-01-29 20:51:00,
2013-01-29 13:56:00,23.9,1.4,29.64,North,349,21.0,21.0,37,0.00,,---,0.00,VWS V14.01,2013-01-29 20:56:00,
2013-01-29 14:01:00,24.1,1.6,29.65,WNW,296,4.0,10.0,37,0.00,,---,0.00,VWS V14.01,2013-01-29 21:01:00,
2013-01-29 14:06:00,24.2,1.1,29.65,NW,304,10.0,11.0,36,0.00,,---,0.00,VWS V14.01,2013-01-29 21:06:00,
2013-01-29 14:11:00,24.0,0.3,29.65,WNW,300,7.0,11.0,35,0.00,,---,0.00,VWS V14.01,2013-01-29 21:11:00,
2013-01-29 14:16:00,23.9,-0.4,29.65,NNW,340,9.0,14.0,34,0.00,,---,0.00,VWS V14.01,2013-01-29 21:16:00,
2013-01-29 14:21:00,24.1,-0.2,29.65,NW,321,7.0,7.0,34,0.00,,---,0.00,VWS V14.01,2013-01-29 21:21:00,
2013-01-29 14:26:00,24.4,1.3,29.65,NE,49,0.0,3.0,36,0.00,,---,0.00,VWS V14.01,2013-01-29 21:26:00,
2013-01-29 14:31:00,24.1,1.0,29.65,NE,41,5.0,13.0,36,0.00,,---,0.00,VWS V14.01,2013-01-29 21:31:00,
2013-01-29 14:36:00,24.2,-0.1,29.66,NNW,328,4.0,13.0,34,0.00,,---,0.00,VWS V14.01,2013-01-29 21:36:00,
2013-01-29 14:41:00,24.2,-0.1,29.66,NNW,346,0.0,4.0,34,0.00,,---,0.00,VWS V14.01,2013-01-29 21:41:00,
2013-01-29 14:46:00,24.3,0.0,29.67,ENE,65,1.0,6.0,34,0.00,,---,0.00,VWS V14.01,2013-01-29 21:46:00,
2013-01-29 14:51:00,24.2,-0.1,29.67,NNW,344,1.0,7.0,34,0.00,,---,0.00,VWS V14.01,2013-01-29 21:51:00,
2013-01-29 14:56:00,24.3,0.0,29.67,NNW,343,2.0,6.0,34,0.00,,---,0.00,VWS V14.01,2013-01-29 21:56:00,
2013-01-29 15:01:00,24.1,-2.2,29.67,ENE,60,5.0,9.0,31,0.00,,---,0.00,VWS V14.01,2013-01-29 22:01:00,
2013-01-29 15:06:00,23.9,-0.4,29.69,ENE,69,10.0,12.0,34,0.00,,---,0.00,VWS V14.01,2013-01-29 22:06:00,
2013-01-29 15:11:00,23.6,-1.3,29.70,ENE,60,4.0,5.0,33,0.00,,---,0.00,VWS V14.01,2013-01-29 22:11:00,
2013-01-29 15:16:00,23.8,-0.5,29.70,NNE,31,7.0,10.0,34,0.00,,---,0.00,VWS V14.01,2013-01-29 22:16:00,
2013-01-29 15:21:00,23.6,-1.9,29.70,ENE,63,7.0,10.0,32,0.00,,---,0.00,VWS V14.01,2013-01-29 22:21:00,
2013-01-29 15:26:00,23.8,0.8,29.70,NE,42,4.0,6.0,36,0.00,,---,0.00,VWS V14.01,2013-01-29 22:26:00,
2013-01-29 15:31:00,23.7,-1.2,29.71,NNW,338,3.0,10.0,33,0.00,,---,0.00,VWS V14.01,2013-01-29 22:31:00,
2013-01-29 15:36:00,23.7,-1.8,29.71,NNW,342,1.0,14.0,32,0.00,,---,0.00,VWS V14.01,2013-01-29 22:36:00,
2013-01-29 15:42:00,23.8,-1.1,29.71,NNW,333,9.0,14.0,33,0.00,,---,0.00,VWS V14.01,2013-01-29 22:42:00,
2013-01-29 15:47:00,23.5,-0.7,29.71,NNW,339,12.0,14.0,34,0.00,,---,0.00,VWS V14.01,2013-01-29 22:47:00,
2013-01-29 15:52:00,23.4,-1.5,29.74,NW,325,1.0,15.0,33,0.00,,---,0.00,VWS V14.01,2013-01-29 22:52:00,
2013-01-29 15:57:00,23.5,-0.7,29.74,NNW,336,1.0,9.0,34,0.00,,---,0.00,VWS V14.01,2013-01-29 22:57:00,
2013-01-29 16:02:00,23.4,-2.8,29.72,NNW,343,15.0,22.0,31,0.00,,---,0.00,VWS V14.01,2013-01-29 23:02:00,
2013-01-29 16:07:00,23.1,-1.7,29.75,NNW,335,11.0,13.0,33,0.00,,---,0.00,VWS V14.01,2013-01-29 23:07:00,
2013-01-29 16:12:00,23.1,-0.5,29.75,NW,322,4.0,9.0,35,0.00,,---,0.00,VWS V14.01,2013-01-29 23:12:00,
2013-01-29 16:17:00,22.9,-0.6,29.75,NNW,331,9.0,15.0,35,0.00,,---,0.00,VWS V14.01,2013-01-29 23:17:00,
2013-01-29 16:22:00,22.7,-0.2,29.75,NNW,336,13.0,13.0,36,0.00,,---,0.00,VWS V14.01,2013-01-29 23:22:00,
2013-01-29 16:27:00,22.7,-0.8,29.76,NW,326,0.0,12.0,35,0.00,,---,0.00,VWS V14.01,2013-01-29 23:27:00,
2013-01-29 16:32:00,22.6,-1.5,29.76,NNW,344,14.0,16.0,34,0.00,,---,0.00,VWS V14.01,2013-01-29 23:32:00,
2013-01-29 16:37:00,22.4,-1.7,29.78,NW,308,5.0,12.0,34,0.00,,---,0.00,VWS V14.01,2013-01-29 23:37:00,
2013-01-29 16:42:00,22.3,-1.8,29.79,NNW,348,11.0,19.0,34,0.00,,---,0.00,VWS V14.01,2013-01-29 23:42:00,
2013-01-29 16:47:00,22.0,1.9,29.79,East,80,8.0,18.0,41,0.00,,---,0.00,VWS V14.01,2013-01-29 23:47:00,
2013-01-29 16:52:00,21.2,5.5,29.80,East,90,8.0,11.0,50,0.00,,---,0.00,VWS V14.01,2013-01-29 23:52:00,
2013-01-29 16:57:00,20.8,5.5,29.80,ENE,59,4.0,10.0,51,0.00,,---,0.00,VWS V14.01,2013-01-29 23:57:00,
2013-01-29 17:02:00,20.6,5.8,29.80,ENE,67,2.0,7.0,52,0.00,,---,0.00,VWS V14.01,2013-01-30 00:02:00,
2013-01-29 17:07:00,20.4,6.0,29.82,ENE,57,4.0,6.0,53,0.00,,---,0.00,VWS V14.01,2013-01-30 00:07:00,
2013-01-29 17:12:00,20.3,6.3,29.83,East,89,4.0,6.0,54,0.00,,---,0.00,VWS V14.01,2013-01-30 00:12:00,
2013-01-29 17:17:00,20.1,6.1,29.83,ENE,67,4.0,6.0,54,0.00,,---,0.00,VWS V14.01,2013-01-30 00:17:00,
2013-01-29 17:22:00,19.9,6.8,29.84,NE,52,4.0,8.0,56,0.00,,---,0.00,VWS V14.01,2013-01-30 00:22:00,
2013-01-29 17:27:00,19.7,6.2,29.84,ENE,69,3.0,5.0,55,0.00,,---,0.00,VWS V14.01,2013-01-30 00:27:00,
2013-01-29 17:32:00,19.7,6.2,29.84,ENE,61,3.0,5.0,55,0.00,,---,0.00,VWS V14.01,2013-01-30 00:32:00,
2013-01-29 17:37:00,19.7,6.6,29.85,ENE,71,2.0,4.0,56,0.00,,---,0.00,VWS V14.01,2013-01-30 00:37:00,
2013-01-29 17:42:00,19.5,6.8,29.85,ENE,67,5.0,6.0,57,0.00,,---,0.00,VWS V14.01,2013-01-30 00:42:00,
2013-01-29 17:47:00,19.4,6.7,29.85,ENE,70,2.0,2.0,57,0.00,,---,0.00,VWS V14.01,2013-01-30 00:47:00,
2013-01-29 17:52:00,19.3,6.6,29.86,ENE,67,3.0,6.0,57,0.00,,---,0.00,VWS V14.01,2013-01-30 00:52:00,
2013-01-29 17:57:00,19.2,6.9,29.86,ENE,61,3.0,8.0,58,0.00,,---,0.00,VWS V14.01,2013-01-30 00:57:00,
2013-01-29 18:02:00,19.3,6.6,29.86,East,86,2.0,6.0,57,0.00,,---,0.00,VWS V14.01,2013-01-30 01:02:00,
2013-01-29 18:07:00,19.2,6.9,29.89,ENE,76,1.0,6.0,58,0.00,,---,0.00,VWS V14.01,2013-01-30 01:07:00,
2013-01-29 18:12:00,19.0,7.1,29.89,ENE,57,4.0,8.0,59,0.00,,---,0.00,VWS V14.01,2013-01-30 01:12:00,
2013-01-29 18:17:00,18.8,7.2,29.89,East,83,4.0,6.0,60,0.00,,---,0.00,VWS V14.01,2013-01-30 01:17:00,
2013-01-29 18:22:00,18.6,7.4,29.89,East,89,4.0,6.0,61,0.00,,---,0.00,VWS V14.01,2013-01-30 01:22:00,
2013-01-29 18:27:00,18.5,7.7,29.90,East,83,4.0,6.0,62,0.00,,---,0.00,VWS V14.01,2013-01-30 01:27:00,
2013-01-29 18:32:00,18.5,8.0,29.90,East,79,3.0,7.0,63,0.00,,---,0.00,VWS V14.01,2013-01-30 01:32:00,
2013-01-29 18:37:00,18.5,8.4,29.90,East,86,4.0,13.0,64,0.00,,---,0.00,VWS V14.01,2013-01-30 01:37:00,
2013-01-29 18:42:00,18.5,8.4,29.90,ENE,63,7.0,10.0,64,0.00,,---,0.00,VWS V14.01,2013-01-30 01:42:00,
2013-01-29 18:47:00,18.4,8.6,29.91,ENE,63,5.0,8.0,65,0.00,,---,0.00,VWS V14.01,2013-01-30 01:47:00,
2013-01-29 18:52:00,18.2,8.8,29.93,ENE,57,7.0,7.0,66,0.00,,---,0.00,VWS V14.01,2013-01-30 01:52:00,
2013-01-29 18:57:00,17.9,8.5,29.93,ENE,68,5.0,7.0,66,0.00,,---,0.00,VWS V14.01,2013-01-30 01:57:00,
2013-01-29 19:02:00,17.7,8.6,29.93,NE,51,4.0,7.0,67,0.00,,---,0.00,VWS V14.01,2013-01-30 02:02:00,
2013-01-29 19:08:00,17.6,8.9,29.94,NE,53,4.0,7.0,68,0.00,,---,0.00,VWS V14.01,2013-01-30 02:08:00,
2013-01-29 19:13:00,17.5,8.8,29.94,NE,55,3.0,7.0,68,0.00,,---,0.00,VWS V14.01,2013-01-30 02:13:00,
2013-01-29 19:18:00,17.5,9.1,29.94,NE,51,6.0,9.0,69,0.00,,---,0.00,VWS V14.01,2013-01-30 02:18:00,
2013-01-29 19:23:00,17.4,9.0,29.96,ENE,72,5.0,7.0,69,0.00,,---,0.00,VWS V14.01,2013-01-30 02:23:00,
2013-01-29 19:28:00,17.4,9.0,29.97,ENE,63,4.0,6.0,69,0.00,,---,0.00,VWS V14.01,2013-01-30 02:28:00,
2013-01-29 19:33:00,17.3,8.9,29.97,ENE,67,3.0,9.0,69,0.00,,---,0.00,VWS V14.01,2013-01-30 02:33:00,
2013-01-29 19:38:00,17.3,8.6,29.98,ENE,57,4.0,9.0,68,0.00,,---,0.00,VWS V14.01,2013-01-30 02:38:00,
2013-01-29 19:43:00,17.3,8.6,29.98,NE,54,6.0,8.0,68,0.00,,---,0.00,VWS V14.01,2013-01-30 02:43:00,
2013-01-29 19:48:00,17.3,8.6,29.98,ENE,61,4.0,8.0,68,0.00,,---,0.00,VWS V14.01,2013-01-30 02:48:00,
2013-01-29 19:53:00,17.3,8.6,29.98,East,79,5.0,7.0,68,0.00,,---,0.00,VWS V14.01,2013-01-30 02:53:00,
2013-01-29 19:58:00,17.4,8.3,29.99,ENE,70,2.0,6.0,67,0.00,,---,0.00,VWS V14.01,2013-01-30 02:58:00,
2013-01-29 20:03:00,17.3,8.2,29.99,ENE,71,5.0,7.0,67,0.00,,---,0.00,VWS V14.01,2013-01-30 03:03:00,
2013-01-29 20:08:00,17.2,8.5,29.97,ENE,78,5.0,7.0,68,0.00,,---,0.00,VWS V14.01,2013-01-30 03:08:00,
2013-01-29 20:13:00,17.0,7.9,29.98,ENE,64,3.0,7.0,67,0.00,,---,0.00,VWS V14.01,2013-01-30 03:13:00,
2013-01-29 20:18:00,16.9,8.2,29.98,ENE,68,4.0,6.0,68,0.00,,---,0.00,VWS V14.01,2013-01-30 03:18:00,
2013-01-29 20:23:00,16.8,8.1,29.98,ENE,59,6.0,6.0,68,0.00,,---,0.00,VWS V14.01,2013-01-30 03:23:00,
2013-01-29 20:28:00,16.8,8.1,29.98,ENE,69,2.0,4.0,68,0.00,,---,0.00,VWS V14.01,2013-01-30 03:28:00,
2013-01-29 20:33:00,16.9,8.2,29.98,ENE,68,5.0,6.0,68,0.00,,---,0.00,VWS V14.01,2013-01-30 03:33:00,
2013-01-29 20:38:00,17.1,7.7,29.99,ENE,69,2.0,6.0,66,0.00,,---,0.00,VWS V14.01,2013-01-30 03:38:00,
2013-01-29 20:43:00,17.2,7.5,29.99,NE,44,2.0,7.0,65,0.00,,---,0.00,VWS V14.01,2013-01-30 03:43:00,
2013-01-29 20:48:00,17.4,7.7,29.99,NE,46,1.0,9.0,65,0.00,,---,0.00,VWS V14.01,2013-01-30 03:48:00,
2013-01-29 20:53:00,17.6,7.5,29.98,NE,52,3.0,7.0,64,0.00,,---,0.00,VWS V14.01,2013-01-30 03:53:00,
2013-01-29 20:58:00,17.7,6.9,29.98,NE,48,4.0,7.0,62,0.00,,---,0.00,VWS V14.01,2013-01-30 03:58:00,
2013-01-29 21:03:00,17.7,7.3,29.98,NE,52,1.0,9.0,63,0.00,,---,0.00,VWS V14.01,2013-01-30 04:03:00,
2013-01-29 21:08:00,17.7,7.3,30.00,NE,51,5.0,5.0,63,0.00,,---,0.00,VWS V14.01,2013-01-30 04:08:00,
2013-01-29 21:13:00,17.7,7.6,30.00,NE,51,0.0,5.0,64,0.00,,---,0.00,VWS V14.01,2013-01-30 04:13:00,
2013-01-29 21:18:00,17.7,7.3,30.01,NE,51,0.0,4.0,63,0.00,,---,0.00,VWS V14.01,2013-01-30 04:18:00,
2013-01-29 21:23:00,17.7,7.3,30.01,NE,49,0.0,4.0,63,0.00,,---,0.00,VWS V14.01,2013-01-30 04:23:00,
2013-01-29 21:28:00,17.7,7.6,30.01,NE,50,0.0,0.0,64,0.00,,---,0.00,VWS V14.01,2013-01-30 04:28:00,
2013-01-29 21:33:00,17.6,7.5,30.01,NE,50,0.0,1.0,64,0.00,,---,0.00,VWS V14.01,2013-01-30 04:33:00,
2013-01-29 21:38:00,17.6,7.8,30.01,NE,50,0.0,0.0,65,0.00,,---,0.00,VWS V14.01,2013-01-30 04:38:00,